Vorticity
nan nan nan nan nan nan nan nan nan nan nan nan nan nan nan nan nan nan nan nan nan nan nan nan nan nan nan nan nan nan nan nan nan nan nan nan nan nan
nan 11 7 8 11 13 13 10 10 6 9 12 9 12 10 8 10 8 7 7 10 8 9 8 8 8 9 10 9 9 9 10 10 11 11 11 11 nan
nan 9 11 11 8 10 9 9 10 8 9 8 12 14 12 8 3 8 10 7 11 13 6 7 8 8 9 9 8 9 10 10 11 12 12 11 12 nan
nan 9 10 12 10 9 9 9 10 10 12 10 8 9 13 12 9 9 8 7 11 12 6 4 6 8 8 9 8 8 9 10 11 11 12 13 13 nan
nan 11 11 10 10 10 10 10 11 11 8 10 11 10 11 9 11 8 8 9 9 6 10 9 8 7 8 8 8 8 7 9 10 11 13 14 14 nan
nan 13 14 12 11 11 11 12 11 10 9 9 9 8 11 10 6 9 12 10 7 8 11 10 10 13 13 11 9 9 10 10 8 8 9 13 19 nan
nan 15 16 18 19 19 17 17 11 9 10 8 10 10 8 10 8 7 8 9 9 11 10 10 10 11 14 14 13 14 7 5 8 10 9 9 16 nan
nan 10 12 13 14 15 16 18 20 15 9 9 9 9 8 7 8 8 8 9 10 10 9 8 8 9 10 12 12 11 8 6 7 9 11 9 17 nan
nan 9 9 8 8 5 5 5 9 12 14 13 10 7 8 8 10 11 9 8 8 6 8 9 10 10 10 13 13 6 5 7 9 11 11 13 16 nan
nan 11 10 9 10 10 4 5 6 6 9 11 11 12 11 10 10 9 10 10 11 12 10 9 10 9 10 11 13 11 8 8 9 11 13 12 13 nan
nan 12 12 12 12 7 7 9 7 7 6 6 8 10 11 10 10 11 13 11 10 11 13 13 11 10 9 13 17 17 14 11 9 7 11 15 10 nan
nan 8 11 14 9 9 11 9 8 8 8 7 9 9 8 9 8 6 8 10 10 12 12 10 8 11 12 9 6 10 17 16 14 9 10 18 18 nan
nan 8 10 11 9 8 11 12 11 11 10 8 10 10 10 10 10 11 9 9 10 6 4 9 9 9 9 6 6 8 11 12 10 11 17 24 19 nan
nan 12 14 10 7 8 12 11 8 10 8 10 10 10 10 10 9 9 9 9 9 8 7 8 10 7 9 10 9 9 9 12 13 12 14 16 14 nan
nan 14 14 8 6 7 7 7 6 8 10 10 10 10 9 8 10 12 11 11 11 13 12 11 8 9 10 9 9 8 10 12 15 12 13 13 10 nan
nan 6 6 4 6 12 10 4 6 8 10 11 10 10 10 10 10 11 11 11 12 13 13 14 11 10 10 9 10 9 11 11 14 14 11 9 8 nan
nan 9 7 7 8 7 10 10 9 8 9 11 10 10 10 11 10 11 10 10 10 10 11 12 13 13 11 10 11 11 11 12 14 14 13 9 9 nan
nan 9 10 9 10 10 11 11 10 10 9 9 10 10 11 11 10 10 12 10 10 10 10 10 12 14 15 17 12 11 17 17 18 13 11 9 11 nan
nan 10 10 10 10 10 11 11 10 10 10 10 9 10 11 10 11 11 11 11 11 10 10 10 11 12 12 12 12 8 7 21 20 13 11 9 11 nan
nan 10 10 10 10 10 10 10 10 10 10 10 11 11 11 11 11 11 10 10 9 10 12 13 11 9 9 9 10 7 9 14 15 17 9 9 7 nan
nan 9 9 10 10 10 10 10 10 10 11 11 10 10 11 12 12 11 10 10 13 12 9 10 7 12 17 13 11 8 11 15 20 18 17 14 9 nan
nan 10 10 10 10 10 10 11 11 10 11 11 11 12 12 11 11 11 11 12 12 12 11 10 11 13 13 12 10 12 8 17 21 8 12 20 21 nan
nan nan nan nan nan nan nan nan nan nan nan nan nan nan nan nan nan nan nan nan nan nan nan nan nan nan nan nan nan nan nan nan nan nan nan nan nan nan
CAPE
509 383 295 257 242 98 14 6 0 0 2 0 0 0 0 0 0 0 0 0 0 0 0 0 0 0 0 0 0 0 0 0 0 23 69 75 61 69
506 341 142 193 112 19 3 2 0 1 1 0 0 0 0 0 0 0 0 0 0 0 0 0 0 0 0 0 0 0 0 0 0 0 27 59 47 54
211 42 119 21 0 0 3 0 1 2 0 0 0 0 0 0 0 0 0 0 2 0 0 0 0 0 0 0 0 0 0 0 0 0 2 16 56 79
0 3 0 0 0 0 1 0 0 3 0 0 0 0 0 0 0 0 0 1 2 0 0 0 0 0 0 0 0 0 0 0 0 0 1 0 2 27
7 0 1 0 0 3 3 2 2 1 0 0 0 0 0 0 0 0 0 5 2 0 0 0 0 0 0 0 0 0 0 0 0 0 0 1 10 6
2 1 0 0 0 1 0 1 1 1 0 0 0 0 0 0 0 0 2 1 0 0 0 0 0 0 0 0 0 0 0 0 0 0 0 0 0 5
1 1 0 0 0 0 0 0 0 0 0 0 0 0 0 0 0 1 0 0 0 0 0 0 0 0 0 0 0 0 0 0 0 0 0 3 0 1
1 3 1 0 1 0 0 0 0 0 0 0 0 0 0 0 0 0 0 0 0 0 0 0 0 0 0 0 0 0 0 0 0 0 2 4 0 13
0 0 0 0 0 0 0 0 0 0 0 0 0 0 0 0 0 0 0 0 0 0 0 0 0 0 0 0 0 0 0 0 0 0 0 3 3 4
0 0 0 0 0 0 0 0 0 0 0 0 0 0 0 0 0 0 0 0 0 0 0 2 0 0 0 0 0 0 0 0 0 0 0 7 14 7
0 0 0 0 0 0 0 0 0 0 0 0 0 0 0 0 0 0 0 0 1 0 0 0 0 0 0 0 0 0 0 0 0 0 0 4 19 6
0 0 0 0 0 0 0 0 0 0 0 0 0 0 0 0 0 0 0 0 0 0 0 0 0 0 0 0 0 0 3 8 4 0 0 3 5 37
0 0 0 0 0 0 0 0 0 0 0 0 0 0 0 0 0 0 0 0 0 0 0 0 0 0 1 0 0 0 5 30 51 35 18 8 6 5
0 0 0 0 0 0 0 0 0 0 0 0 0 0 0 0 0 0 0 0 0 0 0 0 2 1 2 2 0 0 5 67 64 36 57 16 2 7
0 0 0 0 0 0 0 0 0 0 2 3 2 0 0 0 0 0 1 1 1 1 0 0 3 2 8 10 7 9 26 14 65 38 50 59 27 13
0 1 0 0 0 0 0 0 1 4 3 3 5 4 4 6 8 8 10 6 4 2 0 0 2 11 14 12 11 14 17 65 64 65 66 44 34 28
3 3 3 1 1 2 3 2 5 8 12 14 13 13 10 10 11 12 12 14 15 10 7 3 3 7 10 10 26 12 26 58 134 87 70 47 45 41
5 9 11 9 11 9 10 9 12 12 13 11 11 12 13 16 15 15 16 20 21 14 10 11 15 14 9 3 20 54 68 92 151 85 81 45 36 39
11 10 15 14 13 9 9 11 15 17 13 13 17 19 22 23 23 23 23 24 25 23 17 18 16 21 22 18 6 0 6 27 89 98 37 40 46 37
8 9 13 13 12 12 12 13 16 18 18 20 18 20 23 25 25 21 21 21 27 23 14 8 16 20 23 26 29 17 0 6 25 88 51 40 27 0
8 8 11 10 12 11 18 24 25 24 27 28 24 25 28 27 23 20 22 10 16 20 22 21 19 1 12 19 40 32 19 6 7 28 26 50 43 42
11 9 10 12 17 17 20 21 20 19 20 20 21 22 23 25 24 21 23 25 23 23 21 20 17 20 21 21 26 30 12 8 9 0 0 5 44 44
14 14 14 16 14 16 15 17 15 18 17 18 18 21 19 22 20 21 22 25 26 22 20 22 22 18 20 13 23 22 6 6 20 7 9 0 0 0